User: anonymous
Location: Columbia
(38.9520°N, 92.3340°W)
Time: 09:01:28
(UTC-05:00)
Language:

Iridium 52 - Orbit

View from above orbital plane
View from above orbital plane
View from above satellite
View from above satellite

Ground track
Ground track

The orbit data is extracted from the following two-line orbital elements,

1 25169U 98010A   14244.47696486  .00000095  00000-0  27022-4 0  6613
2 25169 086.3935 056.5951 0002067 108.2153 311.7995 14.34219101865623
Epoch (UTC): 01 September 2014 11:26:49
Eccentricity: 0.0002067
inclination: 86.3935°
perigee height: 776 km
apogee height: 779 km
right ascension of ascending node: 56.5951°
argument of perigee: 108.2153°
revolutions per day: 14.34219101
mean anomaly at epoch: 311.7995°
orbit number at epoch: 86562

The dashed part of the orbit path shows where the satellite is in the earth's shadow,  

DLR